sat.trackr.live / text

‹ back to catalog

STARLINK-30574

NORAD 58094 · 2023-160V

PAYLOAD ACTIVE UNKNOWN

§ Identity

Operator
Country
US
Launch date
2023-10-18
Launch site
AFETR
Launch vehicle
Mass (kg)
RCS (m²)

Purposes: comms

External: N2YO · Heavens-Above · Gunter

§ Orbital elements

Epoch: 2026-09-20T17:01:07.316544Z

Period
94.27 min
Inclination
43.0014°
Eccentricity
0.0001357
Mean motion
15.27579588 rev/d
Perigee alt
482.1 km
Apogee alt
484.0 km
Semi-major
6,861.2 km
B*
2.6493e-5
RAAN
56.3298°
Arg perigee
267.6899°
Mean anomaly
92.3797°
Rev number
16,277

§ Raw data

STARLINK-305741 58094U 23160V   26263.70911246  .00000467  00000+0  26493-4 0  99912 58094  43.0014  56.3298 0001357 267.6899  92.3797 15.27579588162773

JSON: /api/v1/satellites/58094 · /tle

For live sub-satellite position, see the globe view (requires WebGL).

§ Visibility from observer

Set your observer location to see the next 7 days of passes ≥ 10°. The values pass through the URL so the page stays shareable.

No JS? Fill the form by hand. The geolocation button needs JavaScript.